Location: Cisewo
(53.3833°N, 14.9000°E)
Time: 11:02:32
(UTC+00:00)

Cosmos 2219 - Pass Details

Date: 18 April 2021
Orbit: 834 x 859 km, 71.1° (Epoch: 14 May)

Event Time Altitude Azimuth Distance (km) Brightness Sun altitude
Exits shadow 20:05:45 15° 177° (S) 2,130 4.9 -15.7°
Maximum altitude 20:10:08 44° 111° (ESE) 1,148 3.5 -16.1°
Drops below altitude 10° 20:15:26 10° 41° (NE) 2,460 5.7 -16.6°
Sets 20:17:58 0° 35° (NE) 3,401 6.5 -16.9°
